Location: Newark
(33.4453°N, 112.0669°W)
Time: 12:13:37
(UTC+00:00)

SR - All Passes

Search period start: 17 February 2020 00:00
Search period end: 27 February 2020 00:00
Orbit: 575 x 881 km, 66.7° (Epoch: 17 February)

Date Brightness Start Highest point End Pass type
(mag) Time Alt. Az. Time Alt. Az. Time Alt. Az.
17 Feb - 00:16:40 10° SW 00:22:17 46° WNW 00:27:58 10° NNE daylight
17 Feb - 09:02:36 10° NNW 09:07:41 54° ENE 09:12:18 10° SE night (unlit)
17 Feb - 10:46:52 10° WNW 10:49:02 13° WSW 10:51:09 10° SW night (unlit)
17 Feb - 21:50:23 10° ESE 21:51:17 10° E 21:52:09 10° E daylight
17 Feb - 23:26:40 10° SSW 23:32:32 90° NW 23:38:29 10° NNE daylight
18 Feb - 01:12:22 10° W 01:15:24 14° NW 01:18:26 10° NNW daylight
18 Feb - 08:13:28 10° N 08:17:47 26° NE 08:21:46 10° ESE night (unlit)
18 Feb - 09:55:25 10° NW 09:59:48 30° WSW 10:03:51 10° SSW night (unlit)
18 Feb - 22:37:27 10° S 22:42:58 45° ESE 22:48:34 10° NE daylight
19 Feb - 00:20:23 10° WSW 00:25:14 26° NW 00:30:06 10° N daylight
19 Feb - 07:25:12 10° NNE 07:27:38 13° NE 07:29:58 10° ENE night (unlit)
19 Feb - 09:05:16 10° NNW 09:10:22 72° WSW 09:14:59 10° SSE night (unlit)
19 Feb - 21:49:13 10° SSE 21:53:35 22° ESE 21:57:59 10° ENE daylight
19 Feb - 23:29:38 10° SW 23:35:18 49° WNW 23:41:02 10° NNE daylight
20 Feb - 08:15:41 10° NNW 08:20:41 50° ENE 08:25:14 10° SE night (unlit)
20 Feb - 09:59:37 10° WNW 10:02:05 14° WSW 10:04:28 10° SW night (unlit)
20 Feb - 22:39:42 10° SSW 22:45:34 85° ESE 22:51:31 10° NNE daylight
21 Feb - 00:25:07 10° W 00:28:23 15° NW 00:31:39 10° NNW daylight
21 Feb - 07:26:36 10° N 07:30:45 24° NE 07:34:37 10° ESE night (unlit)
21 Feb - 09:08:23 10° NW 09:12:50 32° WSW 09:16:56 10° S night (unlit)
21 Feb - 21:50:34 10° S 21:56:02 42° ESE 22:01:34 10° NE daylight
21 Feb - 23:33:17 10° WSW 23:38:15 27° NW 23:43:13 10° N daylight
22 Feb - 06:38:32 10° NNE 06:40:35 12° NE 06:42:34 10° ENE night (unlit)
22 Feb - 08:18:17 10° NNW 08:23:23 77° WSW 08:27:59 10° SSE night (unlit)
22 Feb - 21:02:27 10° SSE 21:06:39 21° ESE 21:10:52 10° ENE daylight
22 Feb - 22:42:36 10° SW 22:48:20 52° WNW 22:54:05 10° NNE daylight
23 Feb - 07:28:45 10° NNW 07:33:41 46° ENE 07:38:09 10° SE night (unlit)
23 Feb - 09:12:25 10° WNW 09:15:09 15° WSW 09:17:45 10° SW night (unlit)
23 Feb - 21:52:44 10° SSW 21:58:37 80° ESE 22:04:32 10° NNE daylight
23 Feb - 23:37:53 10° W 23:41:21 16° NW 23:44:50 10° NNW daylight
24 Feb - 06:39:43 10° N 06:43:43 22° NE 06:47:27 10° ESE night (unlit)
24 Feb - 08:21:22 10° NW 08:25:52 35° WSW 08:30:02 10° S night (unlit)
24 Feb - 21:03:41 10° S 21:09:05 39° ESE 21:14:32 10° NE daylight
24 Feb - 22:46:11 10° WSW 22:51:15 29° NW 22:56:19 10° N daylight
25 Feb - 05:51:56 10° NNE 05:53:32 11° NE 05:55:05 10° ENE night (unlit)
25 Feb - 07:31:19 10° NNW 07:36:23 83° WSW 07:40:58 10° SSE night (unlit)
25 Feb - 20:15:42 10° SSE 20:19:43 19° ESE 20:23:45 10° ENE daylight
25 Feb - 21:55:35 10° SW 22:01:22 55° WNW 22:07:08 10° NNE daylight
26 Feb - 06:41:49 10° NNW 06:46:40 43° ENE 06:51:05 10° SE night (unlit)
26 Feb - 08:25:15 10° WNW 08:28:11 16° WSW 08:30:59 10° SW night (unlit)
26 Feb - 21:05:47 10° SSW 21:11:39 76° ESE 21:17:33 10° NNE daylight
26 Feb - 22:50:40 10° W 22:54:20 17° NW 22:58:00 10° NNW daylight
